Wetbulb
70.86 70.88 70.34 70.73 70.14 69.26 70.76 70.95 70.96 70.00 70.26 71.18 71.77 71.48 71.25 70.64 71.18 71.44 70.79 71.43 71.10 70.19 70.29 69.92 70.71 70.90 70.99 70.94 69.47 70.49 68.62 68.43 65.32 66.77 69.32 70.49 70.37 70.12 70.03 68.52 67.62 64.91 64.45
70.71 71.18 70.60 70.85 70.98 70.11 70.20 70.82 71.19 70.73 70.55 69.33 70.27 71.40 71.76 72.26 72.04 71.81 71.44 72.02 70.35 71.07 71.34 70.91 70.60 72.63 70.67 70.39 70.28 69.80 68.42 68.69 67.12 65.23 66.06 66.99 69.40 70.25 69.96 68.66 69.54 67.40 64.94
70.42 71.11 70.30 70.10 70.82 70.17 70.48 70.94 70.88 70.74 71.08 71.73 71.92 71.31 71.34 71.48 71.82 71.90 71.40 70.90 70.81 71.45 71.50 71.04 70.94 70.72 70.24 72.03 70.44 69.63 69.14 70.84 68.00 66.46 66.06 68.63 69.37 69.05 69.45 67.62 64.59 62.96 65.05
70.54 70.64 70.10 70.19 70.56 70.68 70.68 70.92 71.20 71.59 71.26 71.76 72.03 71.66 71.94 72.42 72.84 72.28 71.76 71.50 71.70 71.11 71.40 71.75 71.66 70.43 70.21 70.31 69.88 69.55 69.63 68.96 67.95 67.80 67.08 66.66 67.91 68.79 69.11 66.18 64.06 63.59 60.45
70.57 70.78 70.37 71.12 71.33 71.52 71.03 71.26 71.44 71.79 72.30 72.45 71.88 72.10 72.64 72.99 73.46 71.65 70.23 71.19 71.29 70.88 71.38 71.81 71.86 71.10 69.99 69.34 70.08 68.92 69.28 67.91 67.67 66.54 65.87 65.82 66.70 66.30 65.85 68.07 67.69 66.22 62.63
70.95 70.69 71.24 71.42 71.41 71.47 71.57 71.75 71.62 71.61 71.99 71.66 71.73 72.16 72.39 73.61 66.08 66.97 68.75 69.63 71.15 70.36 69.50 70.61 71.38 70.67 70.09 68.41 67.98 67.44 68.00 67.40 66.46 66.94 66.58 66.56 65.54 67.02 67.62 67.53 67.42 66.08 65.56
68.36 69.25 70.94 71.18 71.63 71.50 71.47 71.55 71.24 71.13 71.58 71.93 71.90 71.93 71.39 66.90 63.63 64.58 65.88 67.91 70.57 70.43 70.10 70.40 70.94 67.62 66.52 68.75 66.96 66.83 66.36 66.77 66.88 67.31 65.76 66.71 65.03 64.01 64.68 65.89 66.72 66.32 65.33
65.79 66.39 69.47 70.66 71.04 71.06 70.34 70.77 70.21 70.51 71.08 71.24 70.90 71.40 65.09 62.86 61.74 61.82 64.09 66.39 68.02 68.14 67.69 67.15 64.61 62.45 61.11 63.94 66.75 68.07 68.00 64.70 64.13 65.86 63.22 60.86 60.00 60.36 62.58 64.50 65.47 65.56 61.73
65.88 66.99 68.93 71.16 70.91 71.12 70.79 69.78 69.15 69.49 68.73 68.61 67.87 65.90 63.80 62.82 60.95 61.68 63.86 68.31 66.45 61.79 61.10 61.33 61.04 59.48 58.73 59.87 65.16 66.36 64.33 59.24 59.67 59.14 58.60 58.11 58.12 58.20 58.62 61.35 60.89 63.45 63.59
66.64 68.32 69.38 71.31 70.28 69.48 68.75 69.45 68.45 68.00 66.55 65.85 64.75 62.89 60.51 59.90 59.24 58.90 63.05 67.87 62.00 60.66 58.75 57.06 56.93 56.55 55.81 56.84 62.39 63.45 65.32 61.16 60.15 58.87 55.90 55.88 56.15 55.61 57.00 54.55 56.97 57.28 57.04
67.46 66.70 64.52 64.40 69.69 69.97 68.64 67.78 66.49 64.88 63.05 61.08 59.80 59.68 58.83 58.39 57.95 55.90 60.02 65.50 63.49 61.00 57.58 54.97 54.56 54.52 53.34 53.90 56.72 60.72 61.57 62.79 61.00 58.33 55.96 55.77 55.83 54.90 54.25 53.89 53.68 54.63 52.96
65.45 65.33 63.42 66.13 67.03 66.35 65.16 64.20 63.46 62.53 60.88 59.32 58.21 57.37 57.55 57.57 54.77 54.88 55.76 57.83 60.02 58.56 56.24 55.60 54.21 51.84 50.72 52.55 55.37 55.27 56.16 57.37 57.22 56.87 55.43 54.79 54.36 54.87 56.58 54.89 54.44 54.11 53.51
66.47 65.38 65.04 64.86 64.50 64.77 63.57 62.19 60.49 60.24 59.29 58.39 58.03 57.53 57.43 58.05 57.05 53.98 54.00 55.17 56.18 56.46 55.66 54.55 53.85 52.56 52.27 53.20 54.17 54.99 56.04 55.77 55.74 56.22 56.22 55.22 54.92 54.21 52.51 53.16 54.59 53.15 52.07
64.37 64.46 63.67 62.65 61.69 62.07 62.46 61.35 60.16 59.35 58.49 58.17 58.07 57.91 57.95 57.43 56.90 57.18 56.26 56.16 55.77 55.94 55.91 55.04 54.47 54.89 54.46 55.29 54.36 53.77 53.26 53.90 53.58 51.96 50.45 51.02 50.77 49.55 48.14 48.01 48.78 50.62 49.48
62.11 60.88 59.66 58.41 55.88 52.68 50.29 51.31 53.22 48.69 54.76 58.68 57.31 56.90 55.72 51.71 49.00 46.35 53.11 55.52 56.84 54.76 54.76 55.98 54.90 54.80 54.20 53.89 53.06 52.33 52.14 51.14 50.15 49.54 48.94 47.67 47.99 47.20 46.50 47.01 46.12 46.54 46.21
60.54 59.68 58.82 57.73 57.15 53.85 52.20 48.69 47.82 45.81 44.70 46.50 48.42 48.61 44.62 45.83 43.12 44.09 45.73 46.56 47.63 49.42 55.46 54.34 52.97 51.85 51.99 51.57 50.56 50.25 51.61 51.86 50.07 50.09 49.40 48.80 47.66 48.30 47.64 46.34 46.93 46.11 46.51
59.90 59.76 59.03 57.81 57.18 55.25 54.95 53.08 51.07 49.82 46.00 43.37 42.66 42.76 43.11 42.62 41.84 42.60 44.02 46.65 46.14 48.56 50.66 53.76 52.17 51.25 50.38 50.09 49.16 49.56 48.70 47.46 48.77 47.58 46.11 45.92 46.24 45.77 44.52 45.65 45.46 45.13 46.34
60.23 57.54 59.53 59.09 59.21 57.82 56.87 54.66 51.84 49.94 47.15 46.89 46.66 43.23 42.45 42.82 42.33 41.73 41.62 47.17 50.41 50.16 48.78 51.43 51.01 50.56 50.27 49.88 49.42 48.90 48.07 46.76 46.03 45.93 45.35 44.28 45.25 45.01 43.67 41.62 40.63 42.40 44.72
61.11 61.01 60.60 59.83 59.17 58.11 56.94 55.19 54.27 52.07 49.04 48.10 48.91 47.55 42.98 42.01 41.05 40.43 41.16 48.59 51.31 50.65 49.31 51.28 52.12 52.04 51.05 50.20 48.14 45.95 44.26 45.17 44.30 43.93 42.66 41.96 42.22 42.54 41.63 41.55 41.17 43.06 42.53
56.70 57.68 56.47 54.69 52.67 55.11 56.56 55.44 55.41 54.91 52.56 50.51 50.23 50.95 48.75 46.40 45.68 43.36 42.14 43.16 44.56 46.92 47.45 49.81 50.38 50.90 50.53 49.45 47.83 46.55 44.91 43.83 43.22 42.74 41.82 40.80 40.18 40.34 39.76 39.73 40.00 39.79 40.02
52.13 51.93 54.24 52.46 51.86 52.05 52.51 51.32 51.88 54.06 53.45 51.97 50.82 50.39 47.05 47.04 45.24 45.30 45.61 44.32 46.26 48.03 50.09 51.21 51.37 50.35 49.64 49.11 48.23 47.21 46.21 45.66 43.86 42.12 41.42 40.70 40.31 40.19 40.60 40.04 39.72 40.35 39.81
50.57 51.11 53.07 50.91 50.75 50.27 50.38 50.51 50.50 50.61 50.03 50.66 50.36 48.57 43.93 45.74 48.27 47.22 48.45 48.58 48.22 49.85 50.93 51.29 50.85 50.48 49.98 49.38 49.02 48.14 46.88 46.04 44.78 42.89 42.08 41.80 41.21 40.75 40.48 39.85 39.99 40.11 39.93
53.94 51.32 51.79 51.04 50.99 50.59 49.74 50.20 49.85 49.59 49.52 49.81 49.78 48.13 46.80 45.99 46.17 47.75 48.58 47.90 49.78 50.58 50.93 51.11 50.48 49.58 50.22 50.32 49.61 48.82 46.64 44.31 45.10 44.12 42.70 41.51 41.07 40.67 40.97 40.68 40.57 39.89 39.55
54.18 53.27 52.57 51.42 51.13 51.76 50.98 49.00 48.51 48.23 49.60 49.90 50.14 49.67 48.92 48.66 49.07 49.32 49.33 50.53 50.18 50.39 50.95 52.00 52.49 52.32 50.08 47.23 46.72 45.53 44.82 44.16 44.11 43.90 43.41 43.04 41.98 39.86 40.92 40.96 41.53 40.50 39.05
52.90 52.58 53.46 52.86 50.59 48.38 47.78 46.64 46.86 47.18 48.39 48.65 48.16 47.98 47.32 47.42 47.35 49.61 49.55 48.41 50.79 50.57 50.95 51.87 50.26 49.96 48.69 45.55 43.46 43.53 39.74 39.80 42.93 41.01 43.35 43.32 42.58 42.00 41.46 41.55 41.82 41.53 41.13
48.42 49.19 48.97 49.47 48.20 46.68 46.17 46.01 45.65 46.06 46.74 47.19 47.11 47.02 47.11 47.44 48.39 48.80 49.18 49.60 48.61 49.36 50.05 49.87 49.59 50.02 45.48 43.82 44.72 38.36 32.95 36.44 39.18 38.86 42.69 42.35 41.66 41.67 41.08 41.64 41.74 41.03 41.30
MSLP
1015.73 1015.94 1016.31 1016.77 1017.04 1017.18 1017.77 1017.87 1017.76 1017.49 1017.31 1017.42 1017.63 1017.99 1018.17 1018.34 1018.50 1018.67 1018.96 1019.18 1019.27 1019.31 1019.29 1019.31 1019.32 1019.22 1019.03 1019.05 1019.19 1019.14 1019.14 1019.04 1019.44 1019.10 1018.73 1018.28 1017.93 1018.40 1018.77 1018.94 1019.48 1019.49 1019.74
1015.07 1015.41 1015.73 1016.00 1016.44 1016.90 1017.11 1017.52 1017.70 1017.60 1017.49 1017.32 1017.56 1017.91 1018.09 1018.24 1018.34 1018.57 1018.62 1018.66 1018.99 1019.21 1019.11 1019.15 1019.08 1018.84 1018.94 1019.04 1019.14 1019.18 1019.09 1018.92 1019.19 1019.39 1019.16 1018.92 1018.41 1018.43 1018.59 1019.15 1019.35 1019.61 1019.85
1014.34 1014.96 1015.33 1015.62 1015.97 1016.28 1016.57 1016.96 1017.36 1017.63 1017.75 1017.62 1017.69 1017.88 1017.91 1018.03 1018.18 1018.38 1018.49 1018.59 1018.69 1018.75 1018.80 1018.87 1018.82 1018.87 1018.97 1018.78 1018.82 1018.82 1018.76 1018.84 1019.19 1019.46 1019.43 1019.00 1018.61 1018.66 1019.25 1019.62 1019.84 1020.10 1020.13
1013.78 1014.63 1015.08 1015.39 1015.50 1015.89 1016.14 1016.41 1016.77 1017.19 1017.43 1017.55 1017.50 1017.60 1017.74 1017.82 1017.99 1018.15 1018.23 1018.34 1018.42 1018.51 1018.58 1018.62 1018.65 1018.59 1018.62 1018.55 1018.48 1018.46 1018.52 1018.84 1019.04 1019.30 1019.33 1019.17 1019.05 1018.95 1019.04 1019.43 1019.93 1020.19 1020.17
1013.23 1014.05 1014.33 1014.79 1015.13 1015.48 1015.89 1016.12 1016.29 1016.52 1016.82 1017.05 1017.28 1017.45 1017.59 1017.71 1017.82 1017.98 1018.08 1018.14 1018.19 1018.24 1018.39 1018.50 1018.52 1018.48 1018.44 1018.42 1018.42 1018.50 1018.61 1018.91 1019.07 1019.30 1019.46 1019.32 1019.21 1019.22 1019.20 1019.00 1019.19 1019.39 1020.03
1013.25 1013.55 1013.88 1014.39 1014.65 1014.88 1015.22 1015.54 1015.89 1016.18 1016.34 1016.58 1016.82 1016.93 1017.19 1017.39 1017.51 1017.63 1017.80 1018.01 1018.01 1018.13 1018.38 1018.47 1018.52 1018.58 1018.71 1018.66 1018.61 1018.57 1018.71 1018.85 1018.91 1019.01 1019.01 1019.16 1019.13 1018.95 1018.90 1018.93 1018.89 1019.15 1019.42
1013.28 1013.53 1013.57 1013.71 1014.17 1014.57 1014.72 1015.00 1015.38 1015.68 1015.93 1016.25 1016.46 1016.66 1016.99 1017.32 1017.57 1017.75 1017.77 1017.96 1017.96 1018.02 1018.26 1018.47 1018.73 1018.83 1018.85 1018.87 1018.90 1018.90 1018.91 1018.86 1018.78 1018.79 1018.97 1019.09 1018.99 1018.88 1018.89 1018.81 1018.54 1018.60 1018.76
1012.91 1013.11 1013.44 1013.40 1013.50 1013.91 1014.48 1014.74 1014.88 1015.32 1015.67 1015.94 1016.20 1016.48 1016.99 1017.58 1017.83 1017.80 1017.71 1017.78 1017.98 1018.20 1018.43 1018.59 1018.80 1019.06 1019.00 1018.92 1018.93 1019.05 1019.28 1019.35 1019.23 1019.03 1019.06 1019.30 1019.22 1019.05 1018.84 1018.59 1018.62 1018.76 1019.08
1012.49 1013.19 1013.59 1013.37 1013.18 1013.33 1013.85 1014.34 1014.83 1015.16 1015.75 1016.16 1016.53 1016.85 1017.41 1017.82 1017.97 1017.74 1017.76 1017.75 1018.13 1018.59 1018.91 1019.02 1019.17 1019.25 1019.17 1019.03 1019.01 1019.13 1019.44 1019.59 1019.42 1019.32 1019.51 1019.70 1019.58 1019.16 1018.66 1018.55 1018.72 1018.84 1019.27
1012.87 1012.84 1012.92 1013.27 1012.99 1013.27 1013.54 1014.00 1014.63 1015.50 1016.14 1016.64 1017.04 1017.40 1017.80 1018.09 1018.07 1017.88 1017.66 1017.79 1018.51 1019.01 1019.43 1019.52 1019.50 1019.60 1019.53 1019.38 1019.39 1019.40 1019.53 1019.71 1019.77 1020.01 1020.09 1020.08 1019.88 1019.72 1019.21 1019.00 1018.83 1019.19 1019.52
1012.56 1012.46 1013.01 1013.10 1014.06 1013.52 1014.18 1014.65 1014.93 1015.74 1016.55 1017.25 1017.66 1018.23 1018.42 1018.46 1018.42 1018.12 1017.98 1018.14 1018.72 1019.24 1019.70 1020.00 1020.06 1020.10 1019.94 1019.80 1019.53 1019.56 1019.55 1019.58 1019.74 1020.03 1020.30 1020.47 1020.25 1020.02 1019.94 1019.81 1019.46 1019.23 1019.49
1012.26 1012.79 1013.25 1012.52 1013.42 1012.29 1014.30 1015.39 1015.68 1016.09 1017.04 1017.85 1018.37 1018.81 1019.05 1019.09 1019.00 1018.85 1018.58 1018.66 1018.95 1019.38 1019.93 1020.17 1020.38 1020.50 1020.55 1020.28 1020.07 1020.04 1019.98 1020.03 1020.21 1020.47 1020.63 1020.62 1020.56 1020.57 1020.45 1020.18 1020.19 1020.12 1019.99
1012.40 1013.26 1013.70 1013.19 1012.72 1013.88 1014.96 1015.61 1015.88 1017.06 1017.56 1018.13 1018.50 1019.03 1019.42 1019.58 1019.50 1019.41 1019.43 1019.56 1019.60 1019.73 1020.14 1020.38 1020.56 1020.88 1020.69 1020.57 1020.37 1020.30 1020.26 1020.45 1020.80 1020.99 1021.13 1021.19 1021.14 1020.95 1020.69 1020.55 1020.48 1020.48 1020.31
1013.21 1013.92 1014.33 1014.18 1014.99 1015.91 1016.36 1016.34 1016.83 1017.74 1017.92 1018.56 1018.48 1019.09 1019.71 1019.77 1019.84 1019.85 1020.02 1020.30 1020.49 1020.62 1020.56 1020.69 1020.73 1020.65 1020.68 1020.70 1020.74 1020.85 1020.85 1020.76 1021.00 1021.27 1021.34 1021.19 1021.10 1021.11 1021.00 1020.88 1020.73 1020.60 1020.80
1013.81 1014.43 1015.02 1014.94 1015.81 1016.52 1017.84 1018.32 1017.98 1018.73 1019.07 1018.64 1018.55 1019.02 1019.50 1019.82 1020.15 1020.28 1020.25 1020.47 1020.90 1020.99 1021.07 1021.03 1020.99 1021.05 1021.05 1021.28 1021.41 1021.52 1021.55 1021.52 1021.48 1021.58 1021.57 1021.54 1021.35 1021.22 1021.22 1021.13 1021.14 1021.18 1021.29
1014.57 1015.23 1015.62 1016.15 1016.99 1017.28 1017.76 1018.90 1019.09 1019.65 1019.21 1019.21 1019.17 1019.17 1019.61 1019.73 1019.87 1020.29 1020.57 1020.62 1020.86 1021.17 1021.37 1021.53 1021.49 1021.48 1021.53 1021.64 1021.78 1021.88 1021.65 1021.69 1021.77 1021.86 1021.89 1021.88 1021.91 1021.83 1021.76 1021.47 1021.28 1021.51 1021.69
1014.77 1015.73 1015.91 1016.42 1017.20 1018.00 1018.63 1019.01 1019.50 1020.24 1019.91 1019.70 1019.55 1019.63 1019.72 1020.09 1020.19 1020.37 1020.77 1020.95 1021.01 1021.20 1021.55 1021.57 1021.60 1021.67 1021.77 1021.91 1022.09 1022.22 1022.33 1022.12 1022.15 1022.12 1022.15 1022.09 1022.17 1022.08 1022.06 1022.12 1022.12 1022.08 1022.17
1014.48 1015.77 1016.14 1016.56 1017.20 1017.43 1018.00 1018.68 1018.96 1019.45 1019.82 1020.03 1020.11 1020.06 1020.31 1020.58 1020.68 1020.95 1021.07 1021.09 1021.31 1021.29 1021.63 1021.60 1021.72 1021.84 1021.81 1022.01 1022.26 1022.30 1022.44 1022.48 1022.60 1022.52 1022.48 1022.54 1022.49 1022.52 1022.76 1022.89 1022.85 1022.75 1022.75
1015.03 1015.40 1015.79 1016.48 1016.85 1017.36 1017.88 1018.32 1018.70 1018.98 1019.60 1020.03 1020.50 1020.68 1020.66 1020.59 1020.88 1021.11 1021.14 1021.26 1021.36 1021.46 1021.36 1021.29 1021.31 1021.63 1021.86 1021.96 1022.22 1022.41 1022.56 1022.69 1022.88 1022.88 1023.14 1023.08 1022.97 1022.85 1023.17 1023.36 1023.47 1023.46 1023.28
1015.35 1015.54 1015.87 1016.48 1016.91 1017.26 1017.67 1018.26 1018.78 1019.22 1019.46 1019.92 1020.08 1020.22 1020.56 1020.89 1021.02 1020.88 1021.09 1021.24 1021.30 1021.24 1021.02 1021.00 1021.16 1021.53 1021.74 1021.95 1022.16 1022.31 1022.61 1022.77 1022.95 1023.22 1023.44 1023.39 1023.31 1023.26 1023.30 1023.25 1023.36 1023.24 1023.11
1015.45 1015.89 1016.23 1016.57 1016.83 1017.20 1017.45 1018.19 1018.72 1018.99 1019.33 1019.61 1019.64 1019.76 1019.98 1020.45 1020.59 1020.58 1020.76 1020.84 1020.94 1020.94 1020.86 1020.82 1021.04 1021.35 1021.42 1021.65 1021.95 1022.29 1022.44 1022.57 1022.73 1022.93 1023.15 1023.29 1023.30 1023.29 1023.26 1023.47 1023.49 1023.38 1023.28
1015.45 1015.89 1016.15 1016.55 1016.84 1017.08 1017.44 1017.99 1018.50 1018.77 1018.90 1019.22 1019.57 1019.66 1019.87 1020.21 1020.05 1020.05 1020.21 1020.27 1020.51 1020.38 1020.38 1020.36 1020.59 1020.77 1020.98 1021.32 1021.72 1022.00 1022.19 1022.32 1022.42 1022.66 1022.78 1022.85 1023.03 1023.47 1023.57 1023.37 1023.18 1023.20 1023.06
1015.80 1016.15 1016.37 1016.68 1016.84 1017.24 1017.64 1017.93 1018.31 1018.75 1018.81 1019.02 1019.06 1019.25 1019.59 1019.75 1019.94 1020.08 1020.05 1020.01 1019.77 1020.00 1020.12 1020.47 1020.38 1020.83 1020.63 1021.00 1021.18 1021.52 1022.01 1021.98 1021.83 1022.10 1022.60 1022.97 1023.24 1023.34 1023.05 1023.22 1023.02 1023.04 1023.16
1015.63 1015.93 1016.41 1016.91 1017.24 1017.53 1018.15 1018.60 1018.88 1019.18 1019.53 1019.61 1019.62 1019.83 1020.00 1020.02 1019.82 1019.82 1019.64 1019.35 1019.24 1019.27 1019.56 1020.09 1020.01 1020.43 1020.85 1021.07 1021.18 1021.12 1021.33 1021.56 1021.78 1021.90 1022.14 1022.53 1022.62 1022.76 1022.94 1023.09 1022.77 1022.84 1023.07
1015.69 1016.07 1016.63 1017.22 1017.52 1018.13 1018.86 1019.53 1019.72 1019.84 1019.97 1020.18 1020.44 1020.40 1020.44 1020.35 1020.20 1019.94 1019.80 1019.45 1019.07 1019.06 1019.43 1019.60 1019.90 1020.05 1020.11 1020.51 1021.09 1021.04 1021.39 1021.81 1021.91 1022.20 1022.07 1022.26 1022.78 1022.82 1022.85 1022.93 1022.85 1023.09 1023.21
1016.22 1016.77 1017.18 1017.80 1018.15 1018.68 1019.37 1020.12 1020.49 1020.47 1020.63 1020.79 1020.81 1020.82 1020.91 1020.68 1020.36 1020.12 1019.99 1019.74 1019.47 1019.17 1018.98 1019.27 1019.71 1019.91 1020.42 1020.58 1020.72 1021.21 1021.67 1021.88 1021.93 1022.13 1022.31 1022.56 1022.72 1022.78 1022.83 1022.92 1022.99 1023.17 1023.24
Wind_Speed
12 10 9 8 7 7 6 5 6 4 5 6 6 6 6 6 5 4 4 4 3 3 3 2 4 4 4 3 1 1 1 2 2 3 2 3 3 3 3 5 2 5 4
13 11 10 10 9 7 7 7 6 6 5 6 5 5 5 5 5 6 6 3 4 4 4 3 6 3 5 4 2 2 2 2 2 2 1 2 1 2 4 5 3 4 4
13 12 11 11 10 9 8 7 7 6 7 6 6 7 7 6 5 5 6 6 5 5 5 4 5 2 4 3 2 2 2 1 2 2 2 1 1 2 3 4 3 4 3
13 12 11 11 10 9 9 7 7 8 7 7 7 7 6 6 5 6 6 6 5 6 5 5 4 3 3 2 3 3 3 2 1 1 1 1 1 1 2 3 3 2 3
14 13 13 11 9 9 8 8 7 7 7 7 7 7 6 6 4 5 4 5 6 6 5 5 5 5 6 4 2 2 3 2 1 2 1 1 1 2 2 3 4 4 2
11 12 12 10 10 11 9 8 7 7 6 6 7 7 7 4 8 8 5 3 6 6 5 3 3 3 3 2 1 1 2 3 3 2 2 2 3 3 2 3 3 3 3
5 6 9 12 11 10 10 7 7 7 6 7 7 6 5 4 5 6 5 4 3 2 3 2 4 3 4 3 2 2 2 1 1 3 2 2 1 2 1 3 3 2 2
4 1 5 8 11 10 8 9 7 5 6 5 6 6 6 4 3 2 3 4 3 5 5 4 6 4 3 2 2 4 4 2 2 2 4 3 2 4 4 2 1 3 3
3 2 4 8 11 11 10 7 4 4 4 3 2 5 6 4 1 4 4 4 6 6 5 5 5 4 7 5 3 4 5 3 6 13 11 8 7 8 6 1 1 3 2
2 6 8 12 10 9 7 8 4 7 7 5 6 6 7 4 4 5 1 5 7 5 4 5 10 5 6 8 4 2 3 4 6 4 3 5 7 7 12 6 2 4 3
6 4 7 13 8 7 8 8 9 9 8 7 8 6 5 5 5 7 6 4 5 5 4 3 3 8 8 7 7 4 0 2 6 6 4 3 3 4 5 5 6 3 3
3 8 6 11 1 8 11 8 7 9 9 7 7 6 4 4 8 8 10 8 7 5 4 3 4 6 6 7 5 7 8 6 4 4 3 2 2 3 4 4 5 4 4
8 10 10 11 12 7 6 6 9 6 6 6 6 6 4 2 4 10 11 9 9 6 4 5 4 3 6 6 9 8 7 4 3 2 2 2 1 2 3 2 2 4 4
8 8 9 12 11 7 5 4 7 4 5 4 6 5 4 4 4 4 4 5 8 5 5 3 4 6 6 5 6 6 4 4 3 3 2 1 1 2 2 1 1 1 2
10 8 8 8 10 10 7 4 5 4 2 4 3 5 5 4 3 3 3 4 3 3 3 1 3 3 4 3 3 4 3 4 3 2 1 1 1 1 1 1 1 1 1
9 7 8 7 6 6 8 6 12 6 6 8 8 5 3 8 9 7 8 9 7 3 2 1 2 2 3 2 2 2 2 4 2 1 2 1 2 2 2 2 2 2 2
10 7 7 7 6 7 6 6 8 4 10 10 9 8 7 8 8 9 8 6 7 2 2 2 2 2 2 2 2 1 1 2 2 3 2 3 3 3 4 3 3 3 3
9 8 4 5 5 5 5 5 5 6 4 3 7 6 7 8 9 8 7 4 3 3 1 2 2 3 2 2 1 1 1 3 3 3 4 4 4 3 3 3 3 2 2
6 5 6 5 5 5 5 4 4 5 4 4 2 2 3 6 5 4 3 2 2 1 1 2 2 3 2 3 3 3 3 3 3 3 3 3 3 3 2 2 2 4 2
4 7 5 4 4 4 4 4 4 4 5 4 4 4 3 2 2 2 2 2 2 3 3 3 3 3 3 4 3 3 3 2 2 2 2 1 2 2 1 1 1 1 1
5 5 8 5 5 5 5 4 3 3 4 4 4 3 6 4 4 4 4 4 3 3 3 5 5 4 4 4 4 4 2 2 3 2 2 1 1 1 1 2 1 1 0
4 5 5 5 4 5 5 5 4 5 5 5 4 3 9 4 3 2 2 3 4 5 5 6 5 5 5 5 4 3 3 2 3 4 3 3 3 2 2 2 1 1 1
4 4 3 3 4 6 4 4 4 4 3 1 2 3 3 2 2 3 4 5 5 5 4 4 5 4 5 4 4 5 5 5 5 5 4 3 3 2 1 2 1 1 1
4 5 6 4 4 6 7 7 7 9 8 6 5 4 3 1 3 3 2 4 4 3 5 5 5 6 4 3 3 4 4 3 4 5 7 4 3 3 1 1 2 3 2
4 5 6 5 8 8 8 6 6 6 7 6 5 5 4 4 4 4 3 3 3 4 5 5 4 7 9 10 7 7 7 8 5 5 4 5 5 4 2 2 2 2 1
6 7 8 7 8 8 7 6 5 5 5 5 4 4 4 4 4 4 4 5 3 2 5 4 5 8 10 7 9 10 7 9 7 7 5 4 4 2 2 3 4 3 3
Wind_Direction
196 191 181 182 197 179 183 198 204 192 172 159 174 190 200 203 206 188 198 205 240 272 276 253 280 279 298 304 4 86 40 101 109 308 329 329 343 89 93 92 76 72 62
195 190 197 186 187 190 198 178 199 196 204 193 186 195 191 198 193 204 209 221 225 247 268 282 275 300 275 253 224 176 191 131 132 232 283 297 289 121 144 129 153 102 103
186 191 195 197 191 195 201 185 188 193 203 199 176 194 199 204 201 215 213 230 228 234 244 237 263 267 287 242 199 199 179 174 166 163 285 289 301 74 95 91 98 75 64
178 194 199 206 198 198 198 202 187 189 197 203 204 204 204 212 212 218 215 228 240 236 232 215 215 212 233 177 212 203 189 186 135 188 245 285 297 337 117 148 163 176 160
179 190 197 201 199 197 198 202 207 203 198 196 194 202 202 203 208 200 222 237 233 248 249 239 225 218 192 192 160 209 169 170 220 225 236 244 259 319 249 212 199 161 196
196 198 196 194 193 199 196 198 198 203 200 194 202 198 208 211 172 180 192 230 244 213 233 262 254 202 108 136 211 190 189 177 206 199 190 211 230 210 232 232 237 184 199
134 215 196 195 192 197 197 181 195 196 184 200 204 195 200 150 167 212 200 209 215 179 160 180 108 65 42 39 353 158 140 149 149 164 195 223 245 235 303 280 242 207 178
167 86 236 203 192 192 194 195 183 190 195 196 206 195 136 134 178 238 193 176 134 95 103 109 116 122 74 83 86 87 125 61 8 66 98 101 342 299 251 254 297 98 96
80 108 271 228 203 190 188 187 195 137 107 101 144 124 124 108 259 276 256 175 115 90 64 52 79 61 6 359 113 133 142 83 65 94 94 89 58 38 20 198 49 160 115
266 54 1 282 211 198 179 139 113 120 121 106 83 83 93 99 2 328 271 116 111 109 81 67 53 55 28 31 64 38 139 162 143 124 77 36 24 16 32 53 53 81 90
176 108 29 2 247 162 127 130 124 115 102 91 86 65 62 42 24 25 76 108 140 124 106 82 55 30 32 38 66 52 320 130 117 114 99 70 40 29 27 18 18 56 116
264 102 79 53 257 98 112 104 98 110 112 110 107 84 59 45 30 31 58 75 92 109 108 97 93 76 50 51 57 64 60 74 92 96 105 81 45 22 11 26 16 22 35
91 96 102 83 74 41 73 98 93 84 118 125 121 117 111 97 73 54 50 55 77 95 107 122 101 9 74 57 53 51 63 76 83 77 75 54 350 299 319 342 16 40 48
108 106 109 100 88 67 62 47 93 130 103 127 126 113 126 117 97 81 83 70 72 76 105 103 118 102 80 66 51 39 52 86 114 125 129 144 344 350 355 342 58 80 83
100 87 69 76 89 83 68 10 63 27 307 142 121 138 138 105 97 62 88 102 98 109 100 37 53 50 55 46 42 45 32 40 60 40 54 42 29 23 333 317 33 22 94
109 115 124 115 108 113 113 84 48 28 26 72 114 127 58 96 119 114 95 92 85 74 51 49 41 75 83 68 55 50 42 40 26 39 9 17 2 339 340 4 49 65 90
118 136 125 114 129 134 129 135 116 51 62 58 80 106 98 134 112 92 80 86 59 60 73 152 130 119 112 106 96 83 34 355 15 35 36 22 6 3 34 24 39 54 73
99 101 106 122 135 129 132 136 142 146 128 71 39 78 87 90 80 70 42 54 55 48 114 137 148 160 140 121 124 110 67 29 41 32 60 46 27 44 58 37 31 59 78
129 141 140 144 144 136 131 133 127 114 118 125 114 55 88 81 71 48 36 125 167 228 211 178 165 160 154 134 113 93 96 76 72 72 60 70 46 75 78 66 48 45 85
164 157 143 140 134 137 136 144 142 140 140 161 177 191 145 91 197 193 212 205 193 228 253 188 167 164 152 150 146 131 110 113 122 120 114 97 92 104 96 83 79 104 90
122 122 127 113 122 156 156 150 162 145 160 198 220 200 179 166 197 195 195 206 196 252 208 159 149 147 152 155 150 153 155 189 176 164 160 172 89 66 201 227 232 223 206
104 135 131 129 127 111 116 126 146 157 188 198 203 207 170 214 229 236 244 231 224 205 201 171 165 169 174 174 172 162 178 233 195 186 190 201 201 223 232 239 276 357 31
113 136 140 139 140 118 90 64 70 76 61 15 150 155 179 233 292 286 231 219 214 202 207 208 156 182 177 181 175 170 177 213 206 165 167 187 226 240 255 269 265 214 172
63 150 153 137 79 72 79 73 67 67 69 54 61 56 65 316 288 222 283 300 222 210 154 200 158 159 158 155 162 154 170 158 142 150 146 163 144 130 129 262 202 133 128
75 86 99 100 99 97 90 78 73 72 71 68 58 55 45 35 19 4 324 315 293 159 184 179 165 181 168 152 156 144 139 140 129 136 128 114 115 111 90 98 114 111 151
93 99 99 108 105 104 104 102 94 80 76 63 53 45 39 41 42 34 12 358 312 280 202 174 178 159 155 157 149 142 138 130 114 112 125 124 111 105 79 122 120 115 96